Home   Weather   Garbsen   Past weeks

Flag for Germany Past Weather in Garbsen, Lower Saxony, Germany — Yesterday and Last 2 Weeks

Now
54 °F

Clear.


Feels Like: 54 °F
Forecast: 54 / 69 °F
Wind: No wind

Location: Hannover

Current Time: Sep 27, 2016 at 10:52:11 PM

Latest Report: Sep 27, 2016 at 10:20 PM


Visibility: 10 mi

Pressure: 30.27 "Hg

Humidity: 88%

Dew Point: 50 °F

Location of GarbsenLocation

Past Weather in Garbsen — Graph

°F

Garbsen Temperature Yesterday

Maximum temperature yesterday: 68 °F (at 2:20 PM)
Minimum temperature yesterday: 55 °F (at 6:50 AM)
Average temperature yesterday: 61 °F

High & Low Weather Summary for the Past Weeks

 TemperatureHumidityPressure
High90 °F (Sep 13, 2:20 PM)100% (Sep 21, 3:50 AM)30.30 "Hg (Sep 21, 3:50 AM)
Low43 °F (Sep 24, 6:50 AM)29% (Sep 13, 5:50 PM)29.86 "Hg (Sep 15, 5:50 PM)
Average62 °F71%30.08 "Hg
* Reported Sep 12 9:20 PM — Sep 27 9:50 PM, Garbsen, Weather by CustomWeather, © 2016

Note: Actual official high and low records may vary slightly from our data, if they occured in-between our weather recording intervals... More about our weather records

Advertising

Garbsen Weather History for the Previous 24 Hours

Scroll right to see more
 ConditionsComfort  
Time TempWeatherWind HumidityBarometerVisibility
9:50 PM
Tue, Sep 27
55 °FClear.1 mph88%30.27 "Hg10 mi
9:20 PM55 °FClear.1 mph88%30.27 "Hg10 mi
8:50 PM57 °FClear.1 mph82%30.27 "Hg10 mi
8:20 PM59 °FClear.1 mph77%30.27 "Hg10 mi
7:50 PM61 °FClear.1 mph72%30.27 "Hg10 mi
7:20 PM63 °FClear.2 mph68%30.27 "Hg10 mi
6:50 PM66 °FPassing clouds.3 mph56%30.27 "HgN/A
6:20 PM70 °FSunny.6 mph50%30.27 "Hg10 mi
5:50 PM70 °FSunny.6 mph46%30.27 "Hg10 mi
5:20 PM72 °FPassing clouds.7 mph44%30.27 "HgN/A
4:50 PM72 °FPassing clouds.5 mph44%30.27 "HgN/A
4:20 PM72 °FPassing clouds.3 mph44%30.27 "HgN/A
3:50 PM72 °FSunny.5 mph44%30.27 "Hg10 mi
3:20 PM70 °FSunny.2 mph46%30.27 "Hg10 mi
2:50 PM70 °FSunny.3 mph46%30.30 "Hg10 mi
2:20 PM70 °FPartly sunny.3 mph46%30.30 "HgN/A
1:50 PM68 °FPartly sunny.5 mph49%30.30 "HgN/A
1:20 PM70 °FPartly sunny.5 mph46%30.30 "HgN/A
12:50 PM68 °FPassing clouds.5 mph49%30.30 "HgN/A
12:20 PM68 °FPassing clouds.5 mph53%30.30 "HgN/A
11:50 AM66 °FPassing clouds.5 mph60%30.30 "HgN/A
11:20 AM64 °FPassing clouds.3 mph68%30.30 "HgN/A
10:50 AM64 °FPassing clouds.5 mph68%30.30 "HgN/A
10:20 AM63 °FSunny.2 mph73%30.30 "Hg10 mi
9:50 AM61 °FSunny.1 mph77%30.30 "Hg10 mi
9:20 AM57 °FSunny.1 mph88%30.30 "Hg10 mi
8:50 AM55 °FSunny.1 mph88%30.27 "Hg10 mi
8:20 AM48 °FFog.1 mph100%30.30 "Hg1 mi
7:50 AM48 °FFog.1 mph100%30.27 "Hg1 mi
7:20 AM48 °FScattered clouds.No wind100%30.27 "Hg1 mi
6:50 AM48 °FFog.3 mph94%30.27 "Hg1 mi
6:20 AM48 °FFog.2 mph100%30.27 "Hg1 mi
5:50 AM50 °FCool.No wind94%30.27 "Hg2 mi
5:20 AM52 °FCool.2 mph94%30.24 "Hg3 mi
4:50 AM52 °FCool.2 mph100%30.24 "Hg3 mi
4:20 AM52 °FFog.5 mph94%30.24 "HgN/A
3:50 AM54 °FFog.5 mph94%30.24 "Hg6 mi
3:20 AM52 °FFog.5 mph100%30.24 "HgN/A
2:50 AM55 °FFog.1 mph94%30.24 "HgN/A
2:20 AM55 °FPassing clouds.3 mph94%30.24 "HgN/A
1:50 AM55 °FPartly cloudy.2 mph94%30.24 "HgN/A
1:20 AM57 °FPartly cloudy.3 mph88%30.24 "HgN/A
12:50 AM57 °FPartly cloudy.2 mph88%30.24 "HgN/A
12:20 AM57 °FPassing clouds.1 mph88%30.24 "HgN/A
11:50 PM
Mon, Sep 26
59 °FPassing clouds.2 mph82%30.21 "HgN/A
11:20 PM59 °FClear.1 mph82%30.24 "Hg10 mi
10:50 PM59 °FClear.1 mph82%30.24 "Hg10 mi
10:20 PM59 °FPassing clouds.3 mph82%30.24 "HgN/A
Weather by CustomWeather, © 2016

See weather overviewHow to use our weather pages